Weather in Umet

Russia / Volgograd Oblast     50°17′06″N   45°20′31″E
temp.,
°C
wind,
m/s
gust,
m/s
humid.,
%
clouds,
%
prec.,
mm/h
press.,
hPa
HPBL,
m
25 february, thu
thu2500:00−21wnw238399 0.0 104072
03:00−21wnw238099 0.0 103923
06:00−20wsw3480100 0.0 103798
09:00−16sw4783100 0.0 1035294
12:00−12sw71194100 0.6 1032531
15:00−10sw81394100 1.6 1028634
18:00−10sw91593100 1.3 1024571
21:00−8wsw81494100 3.1 1021539
26 february, fri
fri2600:00−4wsw81493100 1.0 1017410
03:00−2w71395100 1.6 1018403
06:00+1w51097100 0.0 1016305
09:00+1w48100100 0.0 1017210
12:00+1w35100100 0.0 1016141
15:00+1w5999100 0.3 1015271
18:00+2w51098100 0.1 1014265
21:00+2w81598100 0.1 1012465
27 february, sat
sat2700:00+2w71497100 0.1 1010449
03:00+2w81696100 0.2 1009515
06:00+1w61494100 0.0 1008465
09:00+1w61394100 0.0 1007605
12:00+1w61299100 0.0 1007555
15:00+1w71298100 0.0 1007608
18:000w61194100 0.1 1006544
21:000w6129197 0.2 1007600
28 february, sun
sun2800:000w61295100 0.1 1006593
03:000w61294100 0.3 1007555
06:00−5nw6128683 0.1 1008372
09:00−6nnw588642 0.1 1010476
12:00−6nw578426 0.0 1012510
15:00−7nw578545 0.0 1013522
18:00−9nnw498984 0.0 1015449
21:00−10nnw499070 0.0 1018402
1 march, mon
mon100:00−11nnw58890 0.0 1019362
03:00−12nnw47900 0.0 1021297
06:00−12nnw48900 0.0 1022325
09:00−11nnw58860 0.0 1024399
12:00−10nnw578410 0.0 1025469
15:00−9nw578426 0.0 1026514
18:00−11nw499024 0.0 1027381
21:00−12nw379212 0.0 1029241